Terug naar catalogus

FENGYUN 1C DEB

ActiefSSO
NORAD 30646·DEBRIS·🇨🇳 China

Gelanceerd May 10, 1999 vanaf Taiyuan Satellite Launch Center

Loading…

Volgende Passages (komende 24 uur)

TLE

VersSource: Space-Track

Epoch: Sep 14, 2026, 00:42 UTC

1 30646U 99025APD 26257.02980480  .00000730  00000-0  43136-3 0  9997
2 30646  98.6388 271.8175 0047118 331.3974  28.4614 14.10230635  4807

Volg FENGYUN 1C DEB in realtime met AllMySat

Download on the App Store